Dewpoint
13 15 15 15 15 14 14 14 14 14 15 15 14 14 14 12 10 14 13 12 14 15 15 15 15 14 14 13 13 13 13 14 14 13 13 13 13 13 13 12 12 11 11
11 15 15 15 15 14 14 14 14 14 14 14 14 14 14 13 13 13 13 13 12 12 12 13 14 13 13 14 14 14 14 14 13 13 13 13 13 12 12 12 12 12 12
10 15 15 15 15 14 14 14 14 13 13 13 13 13 13 13 13 13 13 13 12 11 12 11 11 12 13 13 14 14 14 14 14 13 13 12 12 12 12 12 11 11 11
13 14 15 15 15 15 15 15 14 13 13 13 13 13 12 12 12 12 12 12 12 12 8 8 7 8 12 13 13 13 13 13 13 13 13 12 12 11 11 11 11 11 10
15 15 15 16 15 15 15 15 14 14 14 13 13 13 12 12 11 10 12 12 11 12 10 5 5 5 6 9 12 12 11 11 13 12 12 12 11 11 11 10 10 10 9
13 14 16 15 16 15 15 15 14 14 14 14 13 13 12 9 7 7 10 10 10 10 10 10 8 7 5 5 6 9 11 12 11 11 11 10 10 9 9 10 9 9 10
14 14 15 15 15 15 15 15 14 14 14 13 13 13 12 8 8 7 8 10 10 9 10 10 9 10 11 9 7 6 7 9 11 11 10 10 10 10 10 9 10 10 10
14 14 15 15 15 15 15 15 14 14 13 11 13 13 12 8 8 7 8 11 11 11 11 9 6 6 7 9 4 3 2 4 5 4 3 2 1 2 8 7 5 6 7
13 14 14 15 16 15 15 14 15 14 14 12 12 13 11 8 8 8 10 11 11 11 9 8 8 6 6 6 6 4 2 1 -1 -2 -3 -4 -6 -9 -10 3 7 3 5
9 13 15 14 15 15 12 14 14 14 14 13 13 13 12 8 8 9 10 10 10 10 9 7 7 7 6 6 9 8 8 7 6 6 4 3 3 1 -0 -6 2 1 1
10 14 14 13 13 12 12 14 14 14 14 13 12 12 10 10 9 9 9 9 8 9 9 9 7 6 4 1 1 5 7 5 4 6 5 3 2 1 2 3 -5 2 1
12 12 12 11 13 11 13 14 14 14 14 13 12 11 11 10 10 9 9 9 9 9 8 8 7 4 1 -0 -1 -5 -3 2 2 3 3 2 -0 -0 0 3 4 -1 0
12 12 11 12 12 13 14 13 15 14 13 13 12 12 11 11 10 9 9 9 9 10 9 8 5 -0 1 0 -5 -3 0 1 -0 -0 -0 -0 -0 1 -0 1 -0 1 1
14 13 13 13 12 11 12 13 14 13 13 12 12 11 11 11 10 10 10 10 10 10 8 7 2 0 3 3 2 1 -0 -1 -0 -1 -1 -1 -1 -1 -1 -1 -2 -2 -2
13 13 13 12 13 12 12 12 13 13 13 12 12 11 11 11 10 10 9 9 9 6 8 4 -1 3 4 3 1 -0 -0 0 -1 -1 -1 -1 -2 -2 -2 -2 -1 -1 -2
13 12 12 12 12 12 12 13 13 13 12 12 12 11 11 10 10 10 9 9 8 7 4 2 4 4 2 -1 -1 -1 -1 -1 -0 -0 -0 -1 -1 -1 -1 -1 -2 -2 -2
11 11 11 11 11 11 12 12 12 12 12 12 12 11 11 10 10 8 8 8 8 6 4 4 4 2 0 -1 -2 -2 -1 -0 -0 -0 -1 -1 -1 -1 -1 -2 -2 -2 -2
10 11 11 11 11 11 11 12 11 11 12 11 11 11 10 9 8 8 8 7 6 3 4 4 3 2 -1 -1 -0 0 0 1 0 -0 -0 -1 -1 -1 -2 -2 -3 -2 -3
11 11 10 11 11 11 10 11 11 11 10 9 9 9 8 8 8 8 7 6 4 3 3 3 2 0 -1 0 1 1 1 1 -1 -1 -0 -0 -1 -1 -2 -2 -2 -2 -2
10 10 10 11 10 10 10 10 10 9 9 8 7 7 5 6 6 6 6 5 4 2 2 1 0 -0 1 1 2 2 1 1 1 1 -0 -1 -1 -0 -1 -1 -1 -2 -2
11 10 9 10 10 8 7 7 6 6 4 2 1 3 -2 -1 2 2 3 2 0 -0 -0 -1 -1 0 1 2 1 1 0 -1 -1 -1 -1 -0 -0 -1 -1 -1 -2 -1 -1
10 9 8 6 3 1 0 -1 -2 -2 -1 0 1 1 -1 0 -1 -0 -0 -1 -1 -1 -1 -1 -0 -1 -1 -0 0 1 0 -1 -1 -1 -0 1 0 -0 -1 -1 -1 -1 -2
9 8 6 4 3 0 -1 -0 -0 0 0 1 1 1 0 0 0 -0 -0 -0 -0 0 1 1 1 -0 -0 1 1 0 0 0 1 1 2 1 1 -0 -1 -2 -3 -4 -5
9 7 7 4 3 2 1 0 1 1 1 1 1 1 0 0 0 1 1 1 1 2 2 1 0 -0 -0 1 1 1 -0 -2 -3 -0 -0 -0 -1 -2 -5 -7 -11 -13 -12
9 8 7 5 4 3 3 2 2 3 3 4 4 4 4 4 3 3 2 2 2 2 -0 -1 1 2 2 1 -0 -1 -3 -2 -2 -1 -1 -3 -7 -10 -10 -11 -11 -12 -11
9 9 9 7 5 5 4 4 4 5 5 4 4 4 4 4 4 3 3 2 2 1 2 2 2 1 1 0 -0 -2 -1 -1 -1 -4 -15 -28 -13 -11 -11 -11 -11 -12 -12
Wind_Speed
17 17 10 8 8 7 5 4 4 4 5 6 6 6 8 8 9 12 12 9 9 8 9 9 11 9 8 7 5 4 5 7 10 14 13 14 10 7 5 2 1 1 2
18 13 10 9 8 7 6 3 3 4 5 5 6 7 8 9 9 10 10 9 8 9 10 9 11 8 8 8 6 7 5 6 6 10 16 15 10 9 5 2 1 1 1
17 11 11 9 8 7 6 4 3 4 5 4 6 7 7 8 10 10 10 10 11 11 13 12 12 12 14 12 10 9 6 6 4 7 15 12 9 6 4 3 1 2 2
14 14 12 11 9 7 6 5 4 4 3 4 5 6 7 7 8 8 9 9 10 11 11 13 13 12 13 13 14 11 7 5 6 8 10 10 7 5 2 2 2 3 3
14 12 11 11 10 8 8 6 4 4 3 3 4 4 5 4 4 7 8 8 9 10 11 13 14 14 12 10 10 12 11 10 10 9 8 6 6 4 4 3 3 3 3
17 11 10 12 11 11 9 7 6 5 3 3 3 3 3 2 4 6 8 7 8 9 10 10 11 11 12 12 12 12 11 10 9 8 9 6 5 3 3 3 2 2 3
16 14 11 14 13 13 10 10 9 10 7 5 4 3 2 2 3 5 7 6 7 8 8 8 7 10 10 10 11 9 9 11 13 10 8 6 4 3 1 2 2 0 0
16 14 11 12 14 14 13 11 12 12 9 7 6 6 4 4 3 6 7 5 5 7 7 6 7 9 9 9 8 10 10 9 10 8 6 5 3 2 4 3 5 4 2
20 15 12 14 14 14 14 12 13 14 11 9 8 9 6 5 4 5 7 3 4 4 4 4 4 5 6 7 6 7 7 8 8 7 7 7 7 6 3 4 5 6 7
15 15 15 15 14 15 13 11 14 14 14 10 10 11 10 7 6 6 8 4 4 3 2 2 2 2 3 4 6 4 4 5 3 7 9 11 11 13 10 3 5 4 4
16 16 16 13 14 14 12 12 15 18 18 17 12 12 11 8 9 8 9 8 4 3 4 4 1 2 2 3 2 3 4 1 4 3 3 4 5 6 6 8 5 6 3
18 15 15 14 12 17 16 16 19 20 21 18 13 11 10 11 9 9 10 9 10 9 7 5 5 4 4 3 4 4 5 7 2 1 1 2 3 4 5 6 5 10 4
21 22 19 20 19 17 15 19 21 23 22 18 13 12 10 9 10 9 10 10 9 8 7 7 7 6 3 3 6 7 8 4 0 0 1 2 4 6 7 6 8 11 12
13 17 19 19 18 19 19 20 21 22 23 21 17 16 12 9 9 10 11 11 10 9 9 9 9 7 4 5 3 6 2 1 2 1 2 3 4 5 5 6 6 6 6
14 13 14 15 16 17 18 18 19 23 20 16 16 14 12 12 11 12 10 10 10 11 9 11 10 5 5 3 1 1 1 2 2 2 2 3 3 4 4 5 6 6 6
10 11 11 10 13 13 15 17 18 22 18 19 18 16 17 15 17 12 12 12 13 12 12 9 8 7 5 4 3 2 1 2 2 2 3 3 3 3 5 5 6 6 6
9 8 8 11 13 14 16 19 20 20 18 18 18 17 17 15 14 11 13 13 15 15 13 10 9 7 6 5 4 3 3 2 2 1 2 3 4 5 6 5 6 6 7
10 13 10 10 11 12 16 16 15 17 18 19 17 18 15 14 13 12 15 15 16 18 13 11 10 9 8 7 5 4 4 2 2 2 3 3 4 5 6 7 7 6 9
11 9 12 11 11 12 12 14 13 11 11 10 16 18 15 15 14 14 15 15 11 11 10 11 10 10 9 8 7 6 5 4 3 4 4 4 5 7 8 9 10 11 11
15 12 12 11 12 13 13 13 15 16 15 14 11 12 15 15 14 14 16 16 11 12 11 12 11 10 10 9 7 6 6 7 5 6 7 8 9 9 12 13 13 14 14
13 14 14 13 16 14 15 16 16 16 15 14 12 14 14 14 11 11 12 12 11 12 12 11 11 11 10 10 9 9 9 9 9 10 10 9 11 14 15 15 16 17 18
15 13 13 15 14 15 15 15 15 15 15 14 14 15 12 15 11 11 11 11 11 11 11 11 11 10 10 10 11 10 10 12 13 13 12 12 14 15 16 17 17 18 18
16 17 13 16 14 14 15 15 15 16 16 15 15 13 16 12 11 11 11 11 11 11 11 11 11 11 11 11 14 12 12 12 11 10 11 12 14 17 17 18 18 18 18
16 22 15 16 14 14 16 17 16 16 15 15 14 17 16 14 12 13 13 11 12 12 15 14 13 13 14 14 11 9 12 17 16 10 14 15 15 16 16 16 15 15 15
16 24 21 22 21 17 15 18 20 18 15 12 13 17 14 11 12 13 14 14 13 15 19 18 15 13 18 16 12 18 17 16 18 20 22 20 14 13 12 12 13 13 13
18 21 22 21 22 20 25 17 15 11 10 16 16 16 12 10 11 16 19 20 18 16 15 13 14 14 16 17 19 20 18 21 23 24 20 15 10 10 11 12 12 12 13
Wind_Direction
167 144 147 165 149 127 121 99 70 61 48 39 57 55 56 56 59 56 26 41 51 56 59 56 50 50 47 59 91 130 172 173 181 182 194 183 177 189 181 163 133 30 91
160 141 155 156 139 122 104 82 79 74 76 77 78 70 66 68 70 64 62 46 63 57 56 67 58 54 60 71 63 87 113 146 173 181 187 181 184 175 166 162 128 92 108
164 158 160 156 142 129 137 157 139 98 83 64 75 82 77 70 68 70 73 59 56 68 69 64 65 69 59 60 62 63 96 109 126 165 177 181 171 154 165 146 128 113 70
169 170 173 164 164 167 170 171 148 108 95 85 77 84 82 74 71 76 76 83 77 63 66 70 69 72 80 60 71 63 63 95 114 148 170 168 164 154 137 96 101 111 102
169 173 176 178 177 192 186 182 172 128 140 117 95 86 81 80 86 87 79 77 80 79 73 74 74 72 79 92 83 88 67 78 94 119 128 130 123 116 104 101 93 92 16
191 190 193 179 180 199 202 192 188 168 171 130 106 105 102 99 103 101 95 86 85 81 75 69 65 65 70 72 78 96 109 107 99 98 93 85 73 58 57 69 117 16 323
192 187 202 195 195 204 212 209 190 196 184 177 158 148 180 132 106 102 106 95 90 90 90 91 82 80 67 59 72 87 95 100 98 102 104 105 111 142 128 46 197 259 328
197 201 210 211 203 209 208 214 201 212 215 199 178 186 182 167 135 121 109 93 90 88 79 81 87 86 93 81 71 78 87 99 103 99 105 113 90 95 133 347 9 358 2
190 211 216 212 206 214 210 213 213 211 218 213 186 201 212 187 172 142 114 101 115 105 132 116 87 84 85 93 79 60 61 61 66 59 52 43 35 29 53 41 263 312 283
196 220 224 224 209 213 225 220 214 223 218 192 190 193 205 206 200 174 135 171 164 146 70 111 76 91 117 114 99 90 101 108 85 19 21 30 33 29 23 44 45 350 330
214 238 232 235 227 226 244 226 224 226 216 188 193 202 198 212 216 207 202 205 184 131 171 180 169 134 134 119 115 154 192 194 44 87 12 27 15 11 354 11 23 28 340
222 250 237 234 247 241 243 231 223 227 212 198 201 195 207 207 221 218 218 218 190 216 213 226 218 179 148 103 35 54 88 97 42 269 317 339 341 331 333 332 337 14 2
232 243 249 256 236 233 239 235 227 219 207 194 187 187 193 203 218 217 219 217 216 222 219 219 199 177 138 64 40 102 81 39 98 19 341 338 335 318 7 342 326 329 330
242 242 243 240 237 236 234 241 232 222 204 180 198 200 196 199 212 219 224 219 209 212 213 207 185 184 153 191 41 36 40 99 114 67 340 325 329 329 333 335 339 333 330
247 252 255 254 251 247 238 231 215 222 214 207 204 199 196 205 207 203 201 196 207 192 203 184 179 196 216 203 221 182 111 43 49 18 355 341 335 336 332 333 334 338 338
247 251 256 265 255 237 224 220 211 209 211 204 205 201 202 205 222 228 220 213 199 190 172 185 199 214 208 206 207 192 171 102 75 41 19 6 356 346 339 348 341 338 342
261 247 236 221 261 225 218 216 221 209 204 208 206 220 222 230 230 221 219 207 195 185 171 207 211 208 209 202 195 193 199 203 111 5 9 359 352 345 349 343 344 343 344
257 233 223 228 226 228 217 214 212 221 221 209 217 216 218 223 236 249 203 195 193 188 193 218 211 208 205 200 203 209 217 248 257 302 307 320 325 334 333 330 326 330 328
284 246 236 222 216 212 213 215 216 198 190 200 224 211 221 220 213 204 198 187 197 206 216 212 205 207 206 207 210 211 215 233 249 291 279 300 312 313 311 309 309 303 298
288 240 234 230 222 215 208 207 208 205 204 202 211 202 203 198 198 199 195 186 201 214 211 207 208 208 207 208 213 221 240 249 255 280 282 292 296 296 300 303 304 304 300
256 255 241 233 226 225 217 216 213 210 207 205 196 197 190 173 185 193 195 201 201 205 208 210 212 211 215 220 225 232 247 264 267 276 280 281 293 296 294 293 295 292 296
250 214 243 220 223 219 215 210 203 197 194 191 186 196 181 175 200 201 201 205 204 205 211 213 217 225 230 241 228 230 254 271 276 275 274 276 285 290 291 289 291 288 289
245 210 225 226 226 221 213 206 203 198 196 196 196 194 189 198 206 213 212 215 217 215 217 221 225 231 244 233 239 252 257 265 258 254 261 272 281 287 285 283 286 286 286
250 212 216 227 227 221 218 221 213 212 210 211 208 202 199 209 217 223 224 225 212 213 217 229 241 238 246 243 240 236 236 261 270 264 272 282 285 285 281 277 282 282 285
246 220 215 219 217 220 214 213 229 213 216 226 230 229 209 214 231 233 240 223 228 238 238 251 251 245 247 238 220 227 268 272 275 280 283 284 276 274 279 277 279 280 283
239 229 221 229 211 224 222 219 223 209 234 244 240 230 210 213 219 229 231 248 257 264 261 242 230 225 236 230 235 261 269 279 284 287 284 276 266 269 270 266 277 280 281
Height
1535 1538 1542 1547 1546 1546 1549 1549 1549 1548 1548 1547 1545 1544 1542 1539 1539 1540 1540 1537 1536 1536 1535 1534 1533 1533 1532 1532 1533 1533 1533 1535 1537 1540 1543 1544 1545 1547 1547 1548 1549 1549 1548
1536 1538 1543 1546 1547 1546 1548 1550 1550 1549 1549 1548 1547 1546 1544 1543 1542 1543 1543 1540 1539 1538 1536 1535 1534 1533 1534 1534 1534 1534 1535 1536 1536 1538 1540 1542 1544 1545 1547 1548 1548 1548 1548
1537 1540 1543 1545 1546 1547 1548 1551 1551 1549 1549 1550 1547 1546 1546 1545 1544 1543 1544 1543 1541 1540 1539 1536 1535 1535 1535 1536 1536 1536 1536 1537 1537 1538 1540 1542 1544 1546 1547 1548 1548 1548 1549
1540 1542 1544 1544 1544 1548 1549 1551 1550 1549 1550 1550 1549 1548 1548 1547 1547 1546 1545 1545 1545 1542 1541 1539 1538 1537 1537 1539 1538 1538 1538 1538 1539 1540 1542 1544 1546 1547 1547 1548 1548 1548 1548
1541 1543 1544 1543 1545 1547 1549 1551 1551 1550 1551 1550 1550 1550 1551 1551 1549 1548 1548 1548 1546 1545 1543 1543 1542 1541 1541 1541 1541 1541 1541 1541 1541 1542 1544 1545 1547 1548 1548 1549 1548 1549 1549
1540 1542 1543 1542 1544 1546 1548 1549 1551 1551 1552 1552 1553 1554 1553 1550 1549 1549 1550 1550 1549 1548 1548 1548 1546 1544 1544 1544 1543 1543 1544 1544 1545 1545 1546 1547 1548 1548 1548 1548 1548 1548 1548
1539 1540 1540 1541 1541 1545 1546 1548 1550 1551 1551 1552 1553 1554 1553 1551 1551 1551 1551 1553 1552 1550 1551 1552 1552 1549 1550 1548 1547 1547 1546 1546 1547 1548 1548 1549 1549 1549 1549 1548 1548 1548 1548
1537 1538 1538 1540 1541 1543 1545 1546 1547 1548 1549 1550 1552 1553 1552 1552 1552 1551 1552 1554 1554 1553 1553 1552 1551 1550 1549 1551 1549 1549 1549 1548 1547 1548 1548 1549 1549 1548 1549 1549 1548 1547 1546
1531 1534 1536 1538 1540 1541 1543 1543 1544 1546 1547 1548 1549 1550 1551 1551 1552 1553 1553 1555 1554 1554 1553 1552 1552 1551 1551 1550 1551 1551 1551 1550 1549 1549 1549 1549 1549 1548 1548 1548 1549 1549 1547
1530 1532 1535 1534 1537 1536 1538 1540 1542 1543 1544 1545 1547 1548 1549 1550 1552 1552 1553 1557 1554 1554 1554 1553 1553 1552 1552 1552 1552 1553 1553 1553 1552 1550 1550 1549 1549 1548 1547 1547 1547 1547 1547
1531 1530 1532 1533 1533 1535 1536 1537 1539 1540 1542 1543 1545 1545 1546 1548 1550 1550 1551 1551 1552 1553 1555 1554 1553 1553 1553 1553 1553 1552 1552 1552 1552 1552 1552 1553 1553 1552 1551 1548 1546 1547 1546
1528 1528 1529 1531 1534 1533 1534 1535 1535 1535 1537 1540 1541 1543 1544 1546 1547 1548 1549 1549 1550 1550 1551 1552 1553 1552 1552 1553 1553 1552 1551 1552 1553 1554 1553 1553 1553 1552 1551 1549 1547 1546 1545
1526 1525 1527 1528 1531 1531 1532 1532 1532 1532 1534 1536 1539 1542 1543 1543 1545 1546 1546 1546 1547 1549 1550 1551 1551 1553 1552 1552 1553 1552 1552 1552 1553 1553 1553 1553 1553 1552 1549 1549 1548 1545 1543
1521 1522 1523 1523 1525 1527 1527 1527 1529 1530 1531 1534 1536 1537 1540 1542 1542 1543 1544 1545 1545 1546 1548 1550 1550 1552 1552 1554 1553 1553 1554 1553 1552 1552 1552 1552 1552 1552 1551 1549 1548 1547 1545
1519 1520 1520 1520 1522 1522 1523 1524 1525 1527 1529 1530 1533 1535 1538 1540 1541 1540 1541 1542 1544 1545 1546 1548 1549 1551 1553 1553 1553 1553 1554 1553 1552 1552 1552 1552 1551 1550 1550 1549 1548 1547 1545
1517 1517 1518 1518 1518 1518 1519 1520 1522 1524 1527 1529 1530 1532 1534 1536 1537 1538 1539 1539 1541 1543 1545 1548 1549 1551 1551 1551 1552 1552 1553 1552 1552 1552 1552 1551 1551 1550 1549 1548 1547 1546 1544
1514 1515 1517 1518 1515 1516 1517 1519 1520 1522 1523 1525 1528 1529 1530 1533 1533 1533 1537 1538 1540 1542 1543 1547 1547 1549 1550 1551 1551 1552 1552 1552 1551 1552 1551 1551 1551 1550 1549 1548 1546 1545 1543
1512 1513 1515 1516 1514 1514 1516 1517 1518 1520 1521 1522 1524 1525 1527 1528 1530 1530 1534 1536 1539 1539 1541 1543 1545 1547 1548 1548 1550 1550 1551 1551 1551 1551 1550 1550 1550 1549 1548 1547 1545 1543 1542
1511 1512 1511 1513 1513 1514 1514 1514 1516 1518 1519 1519 1519 1521 1523 1525 1527 1528 1531 1534 1538 1539 1540 1540 1542 1545 1546 1547 1548 1549 1549 1550 1549 1549 1549 1548 1548 1547 1546 1544 1543 1540 1538
1509 1509 1510 1510 1511 1511 1512 1513 1515 1516 1518 1519 1520 1520 1519 1522 1524 1526 1529 1531 1534 1536 1536 1538 1540 1542 1543 1545 1546 1547 1547 1546 1546 1546 1546 1546 1545 1544 1543 1542 1540 1538 1536
1507 1507 1506 1508 1509 1510 1510 1511 1512 1514 1515 1517 1518 1519 1518 1520 1525 1527 1528 1530 1531 1533 1534 1536 1537 1539 1541 1541 1542 1543 1544 1544 1543 1543 1543 1543 1542 1542 1541 1539 1537 1535 1532
1502 1502 1504 1505 1506 1507 1508 1509 1509 1510 1512 1514 1516 1517 1519 1521 1524 1525 1526 1527 1529 1530 1532 1534 1535 1536 1537 1538 1538 1539 1539 1540 1540 1540 1539 1539 1539 1538 1536 1535 1532 1530 1529
1498 1499 1501 1503 1504 1505 1506 1506 1507 1508 1509 1511 1513 1516 1517 1519 1521 1522 1524 1525 1527 1528 1530 1530 1531 1532 1533 1532 1532 1533 1535 1536 1535 1534 1534 1534 1534 1533 1531 1529 1528 1526 1524
1496 1496 1496 1499 1501 1502 1503 1504 1505 1507 1507 1508 1510 1510 1513 1516 1518 1519 1521 1522 1523 1524 1524 1525 1526 1527 1528 1528 1528 1527 1527 1527 1528 1528 1527 1527 1527 1526 1525 1524 1522 1521 1519
1492 1491 1492 1494 1496 1498 1501 1502 1503 1503 1504 1505 1507 1509 1509 1511 1513 1516 1517 1517 1518 1518 1517 1519 1519 1520 1520 1521 1524 1521 1521 1521 1521 1521 1521 1520 1520 1519 1517 1518 1517 1516 1515
1487 1487 1488 1490 1492 1494 1497 1497 1497 1498 1502 1504 1506 1507 1506 1508 1510 1510 1511 1512 1512 1512 1513 1515 1514 1513 1513 1514 1515 1516 1516 1515 1514 1514 1513 1513 1514 1513 1513 1513 1511 1511 1509